WetterOnline ( https://www.wetteronline.ch )

Wetter aktuell Stuttgart

Aktuelles Wetter: Schnarrenberg/Stuttgart (315m)

6-stündlich | Neueste Meldungen
Ortszeit Temperatur Wetter
Fr, 29.05. 20:00 18.6° C wolkenlos
Fr, 29.05. 14:00 18.6° C bewölkt
Fr, 29.05. 8:00 11.2° C wolkenlos
Fr, 29.05. 2:00 11.5° C wolkenlos
Do, 28.05. 20:00 18.5° C wolkenlos
Do, 28.05. 14:00 19.1° C leicht bewölkt
Do, 28.05. 8:00 13.8° C bewölkt
Do, 28.05. 2:00 13.6° C wolkig
Ortszeit Temperatur Wetter
Fr, 29.05. 21:00 17.1° C wolkenlos
Fr, 29.05. 20:50 17.1° C wolkenlos
Fr, 29.05. 20:40 17.2° C wolkenlos
Fr, 29.05. 20:30 18.0° C leicht bewölkt
Fr, 29.05. 20:20 18.0° C leicht bewölkt
Fr, 29.05. 20:10 18.4° C fast wolkenlos
Fr, 29.05. 20:00 18.6° C wolkenlos
Fr, 29.05. 19:30 19.0° C wolkenlos
Fr, 29.05. 19:00 18.7° C wolkig
Fr, 29.05. 18:30 19.4° C wolkig
Fr, 29.05. 18:00 20.0° C leicht bewölkt
Fr, 29.05. 17:30 19.7° C bewölkt
Ortszeit Relative Feuchte Sichtweite
Fr, 29.05. 20:00 33% >70 km
Fr, 29.05. 14:00 32% >70 km
Fr, 29.05. 8:00 58% 45 km
Fr, 29.05. 2:00 54% 65 km
Do, 28.05. 20:00 32% >70 km
Do, 28.05. 14:00 48% 65 km
Do, 28.05. 8:00 66% 50 km
Do, 28.05. 2:00 59% 65 km
Ortszeit Relative Feuchte Sichtweite
Fr, 29.05. 21:00 44% 65 km
Fr, 29.05. 20:50 44% -
Fr, 29.05. 20:40 43% -
Fr, 29.05. 20:30 39% >70 km
Fr, 29.05. 20:20 39% -
Fr, 29.05. 20:10 34% -
Fr, 29.05. 20:00 33% >70 km
Fr, 29.05. 19:30 34% >70 km
Fr, 29.05. 19:00 34% >70 km
Fr, 29.05. 18:30 33% 55 km
Fr, 29.05. 18:00 32% >70 km
Fr, 29.05. 17:30 33% 60 km
Ortszeit Niederschlagsmenge Niederschlagsart
Fr, 29.05. 20:00 0.0 l/m2 in 12 Std. -
Fr, 29.05. 14:00 0.0 l/m2 in 6 Std. -
Fr, 29.05. 8:00 0.0 l/m2 in 12 Std. -
Fr, 29.05. 2:00 0.0 l/m2 in 6 Std. -
Do, 28.05. 20:00 0.0 l/m2 in 12 Std. -
Do, 28.05. 14:00 0.0 l/m2 in 6 Std. -
Do, 28.05. 8:00 0.0 l/m2 in 12 Std. -
Do, 28.05. 2:00 0.0 l/m2 in 6 Std. -
Ortszeit Niederschlagsmenge Niederschlagsart
Fr, 29.05. 21:00 0.0 l/m2 in 1 Std. -
Fr, 29.05. 20:50 keine Meldung -
Fr, 29.05. 20:40 keine Meldung -
Fr, 29.05. 20:30 0.0 l/m2 in 1 Std. -
Fr, 29.05. 20:20 keine Meldung -
Fr, 29.05. 20:10 keine Meldung -
Fr, 29.05. 20:00 0.0 l/m2 in 1 Std. -
Fr, 29.05. 19:30 0.0 l/m2 in 1 Std. -
Fr, 29.05. 19:00 0.0 l/m2 in 1 Std. -
Fr, 29.05. 18:30 0.0 l/m2 in 1 Std. -
Fr, 29.05. 18:00 0.0 l/m2 in 1 Std. -
Fr, 29.05. 17:30 0.0 l/m2 in 1 Std. -
Ortszeit Stärke Spitze Richtung
km/h Bft. km/h Grad Sektor
Fr, 29.05. 20:00 14 3 32 80° O
Fr, 29.05. 14:00 15 3 31 70° O
Fr, 29.05. 8:00 4 1 14 60° NO
Fr, 29.05. 2:00 9 2 22 120° SO
Do, 28.05. 20:00 11 2 41 50° NO
Do, 28.05. 14:00 14 3 36 30° NO
Do, 28.05. 8:00 4 1 14 320° NW
Do, 28.05. 2:00 4 1 25 160° S
Ortszeit Stärke Spitze Richtung
km/h Bft. km/h Grad Sektor
Fr, 29.05. 21:00 18 3 29 120° SO
Fr, 29.05. 20:50 18 3 - 120° SO
Fr, 29.05. 20:40 19 3 - 110° O
Fr, 29.05. 20:30 15 3 30 90° O
Fr, 29.05. 20:20 15 3 - 90° O
Fr, 29.05. 20:10 11 2 - 60° NO
Fr, 29.05. 20:00 14 3 29 80° O
Fr, 29.05. 19:30 14 3 22 80° O
Fr, 29.05. 19:00 11 2 32 70° O
Fr, 29.05. 18:30 15 3 28 60° NO
Fr, 29.05. 18:00 14 3 25 90° O
Fr, 29.05. 17:30 14 3 25 40° NO
Ortszeit Untergrenze Bedeckung Gattung
total tief tief mittel hoch
Fr, 29.05. 20:00 - 0/8 0/8 - - -
Fr, 29.05. 14:00 1800 m 7/8 7/8 - - -
Fr, 29.05. 8:00 - 0/8 0/8 - - -
Fr, 29.05. 2:00 - 0/8 0/8 - - -
Do, 28.05. 20:00 - 0/8 0/8 - - -
Do, 28.05. 14:00 1170 m 2/8 2/8 - - -
Do, 28.05. 8:00 1800 m 8/8 7/8 - - -
Do, 28.05. 2:00 8700 m 8/8 0/8 - - -
Ortszeit Bedeckungsgrad in Achtel und Wolkenuntergrenze
Fr, 29.05. 21:00 keine Wolken
Fr, 29.05. 20:50 keine Wolken
Fr, 29.05. 20:40 keine Wolken
Fr, 29.05. 20:30 1(1800m)
Fr, 29.05. 20:20 1(1800m) 2(2400m)
Fr, 29.05. 20:10 1(1800m)
Fr, 29.05. 20:00 keine Wolken
Fr, 29.05. 19:30 keine Wolken
Fr, 29.05. 19:00 6(2400m)
Fr, 29.05. 18:30 3(1800m) 6(2400m)
Fr, 29.05. 18:00 2(2100m) 4(2700m)
Fr, 29.05. 17:30 7(2700m) 7(2700m)
Ortszeit Luftdruck NN (hPa) Tendenz (hPa in 3 Std.)
Fr, 29.05. 20:00 1022 - 0,8
Fr, 29.05. 14:00 1025 - 1,4
Fr, 29.05. 8:00 1028 + 0,1
Fr, 29.05. 2:00 1028 + 0,3
Do, 28.05. 20:00 1026 - 0,4
Do, 28.05. 14:00 1028 - 0,8
Do, 28.05. 8:00 1029 + 0,1
Do, 28.05. 2:00 1030 - 0,7
Ortszeit Luftdruck NN (hPa) Tendenz (hPa in 3 Std.)
Fr, 29.05. 21:00 1022 - 0,6
Fr, 29.05. 20:50 1022 keine Meldung
Fr, 29.05. 20:40 1022 keine Meldung
Fr, 29.05. 20:30 1022 - 0,8
Fr, 29.05. 20:20 1022 keine Meldung
Fr, 29.05. 20:10 1022 keine Meldung
Fr, 29.05. 20:00 1022 - 0,8
Fr, 29.05. 19:30 1022 - 1,0
Fr, 29.05. 19:00 1022 - 1,1
Fr, 29.05. 18:30 1022 - 1,4
Fr, 29.05. 18:00 1022 - 1,5
Fr, 29.05. 17:30 1022 - 1,6
Ortszeit Schneehöhe (cm)
Fr, 29.05. 20:00 -
Fr, 29.05. 14:00 -
Fr, 29.05. 8:00 -
Fr, 29.05. 2:00 -
Do, 28.05. 20:00 -
Do, 28.05. 14:00 -
Do, 28.05. 8:00 -
Do, 28.05. 2:00 -
Ortszeit Schneehöhe (cm)
Fr, 29.05. 21:00 -
Fr, 29.05. 20:50 -
Fr, 29.05. 20:40 -
Fr, 29.05. 20:30 -
Fr, 29.05. 20:20 -
Fr, 29.05. 20:10 -
Fr, 29.05. 20:00 -
Fr, 29.05. 19:30 -
Fr, 29.05. 19:00 -
Fr, 29.05. 18:30 -
Fr, 29.05. 18:00 -
Fr, 29.05. 17:30 -
Link zu dieser Seite / Seite empfehlen

Das Wetter in ...